Lid_Strength_Index
1 0 1 1 0 0 0 -0 -0 -0 -1 -1 -0 -0 -0 -0 -1 -1 -1 -0 -0 -0 -0 -0 0 -1 1 0 0 0 1 1 3 2 1 -0 -1 -0 -0 -1 -1 -1 -1
0 0 1 0 0 0 0 -0 -0 -0 -0 -0 -0 -0 -0 -0 -0 0 0 -0 0 0 0 0 1 0 0 -0 0 0 1 0 2 3 1 1 1 -0 -0 0 -0 -1 -1
2 1 0 0 0 0 0 -0 -0 -0 -0 -0 0 0 0 -0 0 -0 -0 0 0 0 0 0 0 0 0 0 0 1 1 1 1 2 2 1 1 0 1 -0 -0 -0 -1
2 2 1 0 0 0 0 0 0 -0 0 0 0 0 0 -0 -0 -0 -0 0 -0 -0 -0 -0 -0 0 0 0 0 0 1 1 1 2 2 1 1 -0 -0 1 1 0 1
2 3 2 3 1 1 0 0 0 0 0 -0 -0 -0 -0 -0 0 0 0 0 0 0 -0 -0 -1 -0 0 0 0 -0 0 1 1 2 2 2 1 1 2 1 1 1 0
3 3 2 3 2 2 1 2 1 2 1 -0 0 0 0 0 3 3 2 1 1 -0 0 -0 -1 -0 -0 0 0 0 0 1 1 2 2 2 1 1 1 1 1 2 3
2 1 2 1 2 1 1 1 1 0 0 0 0 0 0 0 4 4 3 2 1 0 -0 0 0 0 -0 -0 0 0 0 1 0 1 2 2 2 1 1 1 1 2 2
1 1 1 1 1 1 1 1 1 0 0 0 0 -0 0 1 5 5 5 1 0 0 0 0 0 -0 -0 0 1 0 -0 -0 -0 0 0 0 0 -1 -0 0 1 1 1
2 1 1 1 1 1 1 1 1 0 0 0 0 0 0 0 4 5 4 1 2 1 0 -0 -0 0 3 5 1 1 1 0 0 0 1 2 2 2 1 0 2 2 3
1 1 1 0 1 1 1 1 0 0 0 0 0 -0 3 0 5 5 4 3 2 2 0 1 2 1 4 4 1 1 2 1 0 0 -0 -0 0 0 3 -0 1 2 2
1 0 0 0 0 0 0 -0 -0 0 0 0 0 -0 -0 -0 1 5 5 2 2 2 2 1 0 4 5 5 5 1 1 0 0 0 1 0 0 -0 -0 0 -0 1 2
0 1 0 0 1 0 0 0 1 0 1 1 1 1 1 -1 2 3 5 4 3 1 1 1 0 5 5 5 3 2 3 3 0 1 1 1 1 1 0 -0 -1 -1 -1
1 1 1 0 0 1 1 1 2 1 1 2 2 2 1 1 -0 3 5 5 4 2 1 2 3 4 4 3 3 3 3 1 1 1 2 1 1 0 -1 -0 -1 -1 -1
1 1 0 1 1 1 2 1 2 2 2 1 1 2 1 1 1 -0 -0 -0 1 1 0 0 1 2 3 2 2 1 0 0 1 1 1 1 0 0 1 0 1 1 1
0 0 0 2 1 1 -0 0 1 0 2 3 2 1 1 1 1 4 3 1 1 3 5 2 3 2 2 1 1 1 1 1 1 1 1 1 1 1 1 0 1 1 2
1 1 1 1 1 0 1 0 3 4 5 6 7 5 2 6 7 7 7 7 8 8 4 3 2 2 2 1 1 1 1 1 1 1 1 2 2 2 2 1 1 1 2
1 1 1 2 1 1 1 1 2 3 6 7 7 7 8 7 8 8 8 9 9 8 3 2 2 1 1 1 1 1 2 1 0 1 1 1 1 1 2 2 2 2 2
0 5 1 0 1 1 1 1 2 2 2 1 6 5 7 8 8 8 8 8 1 2 1 1 1 1 2 2 1 1 1 1 1 1 1 1 1 2 2 2 2 2 2
1 1 1 1 1 1 1 1 1 1 1 1 1 4 4 6 7 7 7 1 1 1 1 1 1 1 1 1 1 1 1 1 1 1 1 1 1 2 2 2 2 4 3
0 1 2 1 1 1 1 1 1 1 1 1 1 1 0 1 1 1 1 1 1 2 1 1 1 1 1 1 1 1 2 2 2 1 1 1 1 1 2 2 2 2 2
0 1 1 1 1 1 1 1 1 1 1 1 1 1 4 1 1 1 1 1 1 1 1 2 2 2 1 2 3 3 3 3 3 3 2 2 1 2 1 2 3 2 2
0 1 1 1 1 1 2 1 2 2 1 2 2 1 5 1 1 1 1 1 2 1 0 1 2 2 3 3 4 5 5 5 5 4 4 4 4 3 3 2 3 3 2
0 0 1 1 1 2 1 1 1 2 2 2 1 1 1 1 1 1 1 0 0 1 2 2 3 4 4 4 4 4 4 5 5 7 7 7 6 6 5 5 4 3 4
0 1 1 1 1 1 1 2 1 2 1 1 2 1 1 1 0 0 0 0 0 2 3 3 4 5 5 5 4 4 5 5 6 8 8 8 7 6 6 5 4 4 4
1 1 1 1 1 1 2 1 2 2 2 1 2 1 1 1 0 1 1 1 2 2 2 3 4 5 6 6 6 5 7 13 11 11 9 8 7 7 6 5 5 5 5
0 0 1 0 1 1 1 2 1 1 1 2 1 1 1 1 1 2 1 1 2 2 2 3 3 5 5 5 5 8 11 13 12 14 11 10 9 8 7 6 5 5 5